Regional Weather Roundup
Issued by NWS

Home | Current Version | Previous Version | Text Only | Print | Product List | Glossary On
Versions: 1 2 3 4 5 6 7 8 9 10 11 12 13 14 15 16 17 18 19 20 21 22 23 24 25 26 27 28 29 30 31 32 33 34 35 36 37 38 39 40 41 42 43 44 45 46 47 48 49 50
000
ASUS43 KLMK 240210
RWRKY
KENTUCKY REGIONAL WEATHER ROUNDUP
NATIONAL WEATHER SERVICE LOUISVILLE KY
1000 PM EDT SUN APR 23 2017

NOTE "FAIR" INDICATES FEW OR NO CLOUDS BELOW 12,000 FEET
WITH NO SIGNIFICANT WEATHER AND/OR OBSTRUCTIONS TO VISIBILITY.

KYZ001>023-026-027-061>063-070>075-240300-
WESTERN AND SOUTH CENTRAL KENTUCKY

CITY           SKY/WX    TMP DP  RH WIND       PRES   REMARKS
PADUCAH        CLEAR     60  41  49 E14       29.93R
HENDERSON      CLEAR     56  46  69 CALM      29.95R
OWENSBORO      CLOUDY    62  43  49 NE8       29.95R
HOPKINSVILLE   DRIZZLE   53  50  89 N18G25    29.90F
BOWLING GREEN  CLOUDY    53  50  89 N8        29.90R
GLASGOW        CLOUDY    53  51  94 NE8       29.89S
$$

KYZ024-025-028>034-038-045-046-053-240300-
NORTH CENTRAL KENTUCKY

CITY           SKY/WX    TMP DP  RH WIND       PRES   REMARKS
LOUISVILLE/SDF CLOUDY    60  41  49 N5        29.95R
LOUISVILLE/LOU CLOUDY    61  39  44 N3        29.95R
FORT KNOX      LGT RAIN  55  43  62 N8        29.93R
$$

KYZ035>037-039>044-047>052-055>060-089>105-240300-
NORTHEAST KENTUCKY

CITY           SKY/WX    TMP DP  RH WIND       PRES   REMARKS
LEXINGTON      CLOUDY    56  46  69 NE22      29.89F
COVINGTON      CLOUDY    60  35  39 NE9       29.97R
FRANKFORT      CLOUDY    59  45  59 NE13G21   29.91R
$$

KYZ054-064>069-076>088-106>120-240300-
SOUTHEAST KENTUCKY

CITY           SKY/WX    TMP DP  RH WIND       PRES   REMARKS
JACKSON        CLOUDY    51  50  96 VRB3      29.90F
LONDON         CLOUDY    54  49  83 NE6       29.86R
SOMERSET       CLOUDY    52  52 100 N7        29.88S
MIDDLESBORO    CLOUDY    54  50  88 SE7       29.85S
MONTICELLO     CLOUDY    54  52  93 N15       29.88R
$$




USA.gov is the U.S. government's official web portal to all federal, state and local government web resources and services.